This is the latest recevied weather packets stored in our database for station/object K0QED. If no packets are shown the sender has not sent any weather packets the latest 10 day(s).
| Time | Temp. | Humidity | Pressure | Rain* | Wind** | Luminosity | Snow |
|---|---|---|---|---|---|---|---|
| 1777525477 | 0° C | 98% | 1022.9 hPa | 0 mm | - | 0 W/m² | - |
| 1777525173 | 0° C | 98% | 1022.6 hPa | 0 mm | - | 0 W/m² | - |
| 1777524869 | 0.56° C | 98% | 1023 hPa | 0 mm | - | 0 W/m² | - |
| 1777524567 | 0.56° C | 98% | 1022.6 hPa | 0 mm | - | 0 W/m² | - |
| 1777524265 | 0.56° C | 98% | 1023.1 hPa | 0 mm | - | 0 W/m² | - |
| 1777523960 | 0.56° C | 98% | 1023.1 hPa | 0 mm | - | 0 W/m² | - |
| 1777523657 | 0.56° C | 98% | 1023.1 hPa | 0 mm | - | 0 W/m² | - |
| 1777523353 | 0.56° C | 97% | 1023 hPa | 0 mm | - | 0 W/m² | - |
| 1777523050 | 0.56° C | 97% | 1023.2 hPa | 0 mm | - | 0 W/m² | - |
| 1777522747 | 0.56° C | 97% | 1023.4 hPa | 0 mm | - | 0 W/m² | - |
| 1777522443 | 0.56° C | 97% | 1023.6 hPa | 0 mm | - | 0 W/m² | - |
| 1777522141 | 0.56° C | 97% | 1023.4 hPa | 0 mm | - | 0 W/m² | - |
| 1777521837 | 1.11° C | 97% | 1023.5 hPa | 1.27 mm | - | 0 W/m² | - |
| 1777521533 | 1.11° C | 97% | 1023.2 hPa | 3.05 mm | - | 0 W/m² | - |
| 1777521230 | 1.67° C | 97% | 1023.1 hPa | 3.05 mm | - | 0 W/m² | - |
| 1777520928 | 1.67° C | 97% | 1023.2 hPa | 3.05 mm | - | 0 W/m² | - |
| 1777520624 | 1.67° C | 97% | 1023.2 hPa | 3.05 mm | - | 0 W/m² | - |
| 1777520321 | 1.67° C | 96% | 1023.4 hPa | 3.05 mm | - | 0 W/m² | - |
| 1777520019 | 2.22° C | 96% | 1023 hPa | 1.78 mm | - | 0 W/m² | - |
| 1777519715 | 2.22° C | 96% | 1023.2 hPa | 1.27 mm | - | 0 W/m² | - |
| 1777519412 | 2.22° C | 96% | 1022.9 hPa | 3.05 mm | - | 0 W/m² | - |
| 1777519109 | 2.22° C | 96% | 1023 hPa | 1.78 mm | - | 0 W/m² | - |
| 1777518805 | 2.22° C | 96% | 1023.1 hPa | 1.78 mm | - | 0 W/m² | - |
| 1777518501 | 2.22° C | 96% | 1023.5 hPa | 1.78 mm | - | 0 W/m² | - |
| 1777518196 | 2.78° C | 97% | 1022.7 hPa | 1.78 mm | - | 0 W/m² | - |
* Rain latest hour (hover to see other rain measurements)
** Current wind speed in m/s (hover to see current wind gust speed)